This is the latest recevied weather packets stored in our database for station/object KI4BIY. If no packets are shown the sender has not sent any weather packets the latest 10 day(s).
| Time | Temp. | Humidity | Pressure | Rain* | Wind** | Luminosity | Snow |
|---|---|---|---|---|---|---|---|
| 1778168856 | 17.78° C | 55% | 1017.1 hPa | 0 mm | - | 731 W/m² | - |
| 1778168554 | 18.33° C | 55% | 1017.2 hPa | 0 mm | - | 813 W/m² | - |
| 1778168250 | 18.33° C | 58% | 1017.1 hPa | 0 mm | - | 881 W/m² | - |
| 1778167946 | 17.78° C | 59% | 1017.2 hPa | 0 mm | - | 814 W/m² | - |
| 1778167643 | 18.33° C | 60% | 1017.5 hPa | 0 mm | - | 809 W/m² | - |
| 1778167339 | 17.78° C | 63% | 1017.3 hPa | 0 mm | - | 854 W/m² | - |
| 1778167035 | 17.78° C | 66% | 1017.4 hPa | 0 mm | - | 788 W/m² | - |
| 1778166732 | 17.22° C | 77% | 1017.4 hPa | 0 mm | - | 700 W/m² | - |
| 1778166429 | 17.78° C | 66% | 1017.2 hPa | 0 mm | - | 671 W/m² | - |
| 1778166126 | 17.22° C | 64% | 1017.4 hPa | 0 mm | - | 669 W/m² | - |
| 1778165821 | 17.22° C | 64% | 1017.4 hPa | 0 mm | - | 670 W/m² | - |
| 1778165518 | 16.67° C | 68% | 1017.2 hPa | 0 mm | - | 665 W/m² | - |
| 1778165215 | 16.67° C | 74% | 1017.5 hPa | 0 mm | - | 682 W/m² | - |
| 1778164913 | 16.67° C | 78% | 1017.6 hPa | 0 mm | - | 674 W/m² | - |
| 1778164610 | 16.11° C | 77% | 1017.3 hPa | 0 mm | - | 609 W/m² | - |
| 1778164307 | 15.56° C | 79% | 1017.2 hPa | 0 mm | - | 541 W/m² | - |
| 1778164002 | 15.56° C | 81% | 1017.1 hPa | 0 mm | - | 533 W/m² | - |
| 1778163699 | 15.56° C | 79% | 1017.3 hPa | 0 mm | - | 570 W/m² | - |
| 1778163395 | 15.56° C | 77% | 1017.5 hPa | 0 mm | - | 530 W/m² | - |
| 1778163092 | 15.56° C | 78% | 1017.4 hPa | 0 mm | - | 503 W/m² | - |
| 1778162789 | 15° C | 81% | 1017.3 hPa | 0 mm | - | 465 W/m² | - |
| 1778162486 | 15° C | 85% | 1017.4 hPa | 0 mm | - | 415 W/m² | - |
| 1778162183 | 14.44° C | 86% | 1017.4 hPa | 0 mm | - | 418 W/m² | - |
| 1778161881 | 14.44° C | 90% | 1017.5 hPa | 0 mm | - | 310 W/m² | - |
| 1778161577 | 13.89° C | 88% | 1017.3 hPa | 0 mm | - | 254 W/m² | - |
* Rain latest hour (hover to see other rain measurements)
** Current wind speed in m/s (hover to see current wind gust speed)